Regional Weather Roundup
Issued by NWS

Home | Current Version | Previous Version | Graphics & Text | Print | Product List | Glossary On
Versions: 1 2 3 4 5 6 7 8 9 10 11 12 13 14 15 16 17 18 19 20 21 22 23 24 25 26 27 28 29 30 31 32 33 34 35 36 37 38 39 40 41 42 43 44 45 46 47 48 49 50
321
ASUS44 KJAN 300310
RWRMS

MISSISSIPPI HOURLY WEATHER ROUNDUP
NATIONAL WEATHER SERVICE JACKSON MS
1000 PM CDT MON SEP 29 2014

NOTE: "FAIR: INDICATES FEW OR NO CLOUDS BELOW 12,000 FEET WITH NO
SIGNIFICANT WEATHER AND/OR OBSTRUCTIONS TO VISIBILITY.

MSZ001>002-007>008-010>013-018>021-025>028-034>036-300400-
NORTHWEST MISSISSIPPI

CITY           SKY/WX    TMP DP  RH WIND       PRES   REMARKS
CLARKSDALE     FAIR      66  61  82 CALM      29.95R
CLEVELAND      FAIR      71  62  73 CALM      29.93S
GREENWOOD      CLEAR     67  64  90 CALM      29.93R
GREENVILLE     CLEAR     70  58  65 N5        29.93R
GRENADA        FAIR      64  63  94 CALM      29.95R
OLIVE BRANCH   CLEAR     70  66  88 NE3       29.96S
OXFORD         FAIR      64  63  94 CALM      29.97R
TUNICA         CLEAR     66  61  82 N3        29.95S
$$

MSZ003>006-009-014>017-022>024-029>033-037>039-300400-
NORTHEAST MISSISSIPPI

CITY           SKY/WX    TMP DP  RH WIND       PRES   REMARKS
COLUMBUS AFB   CLEAR     67  64  89 CALM      29.93R
CORINTH          N/A     64  61  88 CALM      29.94S
GOLDN TRIANGLE CLEAR     72  61  68 N5        29.92S
STARKVILLE     FAIR      66  63  88 CALM      29.93S
TUPELO         CLEAR     69  62  78 CALM      29.94R
$$

MSZ040-058-300400-
CENTRAL MISSISSIPPI

CITY           SKY/WX    TMP DP  RH WIND       PRES   REMARKS
JACKSON INTL   CLEAR     71  67  87 SE3       29.92R
JACKSON HAWKNS CLEAR     74  67  78 CALM      29.93R
MERIDIAN KEY   CLEAR     69  67  93 CALM      29.92R
MERIDIAN NAS   PTCLDY    72  66  81 CALM      29.92S
RAYMOND        FAIR      70  64  83 CALM      29.93R
VICKSBURG      CLEAR     70  67  90 CALM      29.92R
$$

MSZ059>079-300400-
SOUTH MISSISSIPPI

CITY           SKY/WX    TMP DP  RH WIND       PRES   REMARKS
BROOKHAVEN     FAIR      70  70 100 CALM      29.94S
COLUMBIA       FOG       72  70  94 CALM      29.90S VSB 1
HATTIESBURG    CLOUDY    76  72  87 CALM      29.91R
MCCOMB         CLEAR     76  69  79 CALM      29.92R
NATCHEZ        CLOUDY    73  70  88 CALM      29.92S
PINE BELT      CLEAR    N/A N/A N/A CALM      29.92S
$$

MSZ080>082-300400-
COASTAL MISSISSIPPI

CITY           SKY/WX    TMP DP  RH WIND       PRES   REMARKS
BILOXI         PTCLDY    76  74  91 NE3       29.89R
PASCAGOULA     MOCLDY    74  72  93 CALM      29.89S
GULFPORT       CLOUDY    78  72  81 VRB5      29.88S
$$



USA.gov is the U.S. government's official web portal to all federal, state and local government web resources and services.